sat.trackr.live / text

‹ back to catalog

STARLINK-34515

NORAD 64712 · 2025-142S

PAYLOAD ACTIVE UNKNOWN

§ Identity

Operator
Country
US
Launch date
2025-06-28
Launch site
AFWTR
Launch vehicle
Mass (kg)
RCS (m²)

Purposes: comms

External: N2YO · Heavens-Above · Gunter

§ Orbital elements

Epoch: 2026-09-20T11:26:15.362016Z

Period
94.14 min
Inclination
70.0017°
Eccentricity
0.0002730
Mean motion
15.29592463 rev/d
Perigee alt
475.2 km
Apogee alt
478.9 km
Semi-major
6,855.2 km
B*
3.2855e-4
RAAN
181.0852°
Arg perigee
272.7849°
Mean anomaly
87.3014°
Rev number
6,869

§ Raw data

STARLINK-345151 64712U 25142S   26263.47656669  .00009332  00000+0  32855-3 0  99942 64712  70.0017 181.0852 0002730 272.7849  87.3014 15.29592463 68691

JSON: /api/v1/satellites/64712 · /tle

For live sub-satellite position, see the globe view (requires WebGL).

§ Visibility from observer

Set your observer location to see the next 7 days of passes ≥ 10°. The values pass through the URL so the page stays shareable.

No JS? Fill the form by hand. The geolocation button needs JavaScript.